EW1382 Weather Reports


Display with metric or nautical units.
time (UTC)temp
F
wind
direction
speed
MPH
gust
MPH
rain 1hr
in
rain 24hr
in
rain mn
in
humidity
%
barometer
mb
20170817013247 59 327 0.0 0.0 0.00 0.01 0.01 89 1017.7
20170817011751 60 327 0.0 0.0 0.00 0.01 0.01 88 1017.7
20170817010244 61 45 0.0 0.0 0.00 0.01 0.01 86 1017.6
20170817004748 62 45 0.0 0.0 0.00 0.01 0.01 85 1017.5
20170817003237 63 45 0.0 0.0 0.00 0.01 0.01 82 1017.5
20170817001746 65 45 0.0 0.0 0.00 0.01 0.01 79 1017.5
20170817000254 66 45 0.0 3.0 0.00 0.01 0.01 74 1017.5
20170816234742 67 43 3.0 4.0 0.00 0.01 0.01 72 1017.3
20170816233251 68 38 0.0 2.0 0.00 0.01 0.01 72 1017.3
20170816231740 69 45 2.0 6.0 0.00 0.01 0.01 68 1017.3
20170816230249 70 30 4.0 6.0 0.00 0.01 0.01 67 1017.4
20170816224735 71 50 1.0 3.0 0.00 0.01 0.01 68 1017.4
20170816223248 72 27 3.0 7.0 0.00 0.01 0.01 66 1017.4
20170816221753 72 330 2.0 4.0 0.00 0.01 0.01 65 1017.4
20170816220244 73 11 2.0 7.0 0.00 0.01 0.01 65 1017.4
20170816214749 73 14 3.0 5.0 0.00 0.01 0.01 65 1017.4
20170816213238 73 343 3.0 10.0 0.00 0.01 0.01 66 1017.3
20170816211746 73 350 4.0 6.0 0.00 0.01 0.01 66 1017.4
20170816210235 74 49 5.0 9.0 0.00 0.01 0.01 68 1017.3
20170816204744 74 333 4.0 13.0 0.00 0.02 0.01 68 1017.3
20170816203253 74 19 4.0 8.0 0.00 0.02 0.01 69 1017.2
20170816201742 74 59 4.0 9.0 0.00 0.02 0.01 70 1017.3
20170816200245 75 55 3.0 12.0 0.00 0.02 0.01 69 1017.3
20170816194749 74 329 3.0 7.0 0.00 0.03 0.01 67 1017.3
20170816193242 74 337 4.0 7.0 0.00 0.03 0.01 70 1017.4
20170816191747 74 299 2.0 9.0 0.00 0.03 0.01 71 1017.5
20170816190239 75 352 3.0 10.0 0.00 0.03 0.01 73 1017.5
20170816184745 74 296 2.0 8.0 0.00 0.10 0.01 72 1017.6
20170816183254 74 313 4.0 7.0 0.00 0.10 0.01 72 1017.7
20170816181743 74 359 4.0 11.0 0.00 0.10 0.01 73 1017.7
20170816180252 75 37 4.0 9.0 0.00 0.10 0.01 73 1017.6
20170816174741 74 314 4.0 11.0 0.00 0.11 0.01 76 1017.6
20170816173250 74 359 3.0 10.0 0.00 0.11 0.01 76 1017.7
20170816171739 73 21 4.0 9.0 0.00 0.11 0.01 79 1017.6
20170816170248 73 54 5.0 12.0 0.00 0.11 0.01 78 1017.5
20170816164749 73 349 6.0 12.0 0.00 0.11 0.01 77 1017.6
20170816163242 73 17 6.0 12.0 0.00 0.11 0.01 77 1017.7
20170816161748 73 36 4.0 11.0 0.00 0.11 0.01 78 1017.7
20170816160240 73 31 4.0 7.0 0.00 0.11 0.01 79 1017.7
20170816154745 73 40 3.0 7.0 0.00 0.11 0.01 80 1017.6
20170816153254 72 30 2.0 7.0 0.00 0.11 0.01 80 1017.5
20170816151745 73 1 2.0 6.0 0.00 0.11 0.01 80 1017.4
20170816150255 72 20 4.0 10.0 0.00 0.11 0.01 82 1017.4
20170816144744 71 24 2.0 9.0 0.00 0.11 0.01 80 1017.3
20170816143254 71 321 1.0 7.0 0.00 0.11 0.01 82 1017.3
20170816141741 71 356 6.0 10.0 0.00 0.11 0.01 86 1017.3
20170816140249 71 345 4.0 11.0 0.00 0.11 0.01 86 1017.4
20170816134752 70 47 5.0 8.0 0.00 0.11 0.01 88 1017.4
20170816133242 69 321 1.0 4.0 0.00 0.11 0.01 90 1017.3
20170816131745 68 33 2.0 7.0 0.00 0.11 0.01 94 1017.4
20170816130236 67 28 2.0 6.0 0.00 0.11 0.01 96 1017.3
20170816124739 66 44 1.0 4.0 0.00 0.11 0.01 96 1017.2
20170816123246 66 333 0.0 0.0 0.00 0.11 0.01 97 1017.0
20170816121753 66 316 0.0 0.0 0.00 0.11 0.01 97 1016.9
20170816120240 65 284 0.0 0.0 0.00 0.11 0.01 97 1016.7
20170816114748 65 255 0.0 0.0 0.00 0.11 0.01 97 1016.4
20170816113238 64 252 0.0 0.0 0.00 0.11 0.01 97 1016.4
20170816111742 64 274 0.0 0.0 0.00 0.11 0.01 97 1016.2
20170816110235 64 226 0.0 0.0 0.01 0.11 0.01 97 1016.0
20170816104740 63 253 0.0 0.0 0.01 0.11 0.01 97 1015.8
20170816103253 63 253 0.0 0.0 0.01 0.11 0.01 97 1015.6
20170816101738 62 208 0.0 0.0 0.01 0.11 0.01 97 1015.5
20170816100251 62 208 0.0 0.0 0.00 0.10 0.00 97 1015.2
20170816094735 62 183 0.0 0.0 0.00 0.10 0.00 97 1015.0
20170816093244 63 184 0.0 0.0 0.00 0.10 0.00 97 1014.8
20170816091756 63 182 0.0 0.0 0.00 0.10 0.00 96 1014.6
20170816090242 63 232 0.0 0.0 0.00 0.10 0.00 97 1014.7
20170816084752 63 233 0.0 0.0 0.00 0.10 0.00 96 1014.8
20170816083240 64 233 0.0 0.0 0.00 0.10 0.00 96 1014.6
20170816081745 64 233 0.0 0.0 0.00 0.10 0.00 96 1014.3
20170816080239 64 250 0.0 0.0 0.00 0.10 0.00 97 1014.3
20170816074744 65 190 0.0 0.0 0.00 0.10 0.00 97 1014.1
20170816073236 65 229 0.0 0.0 0.00 0.10 0.00 97 1014.0
20170816071742 64 231 0.0 0.0 0.00 0.10 0.00 97 1013.7
20170816070255 64 231 0.0 0.0 0.00 0.10 0.00 96 1013.5
20170816064740 65 224 0.0 0.0 0.00 0.10 0.00 96 1013.4
20170816063249 65 210 0.0 0.0 0.00 0.10 0.00 96 1013.4
20170816061737 65 240 0.0 0.0 0.00 0.10 0.00 97 1013.4
20170816060246 64 219 0.0 0.0 0.00 0.10 0.00 96 1013.4
20170816054754 64 219 0.0 0.0 0.00 0.10 0.00 96 1013.4
20170816053243 64 219 0.0 0.0 0.00 0.10 0.00 96 1013.3
20170816051748 65 219 0.0 0.0 0.00 0.10 0.00 96 1013.3
20170816050241 65 219 0.0 0.0 0.00 0.10 0.00 96 1013.2
20170816044746 65 219 0.0 0.0 0.00 0.10 0.00 96 1013.1
20170816043237 65 219 0.0 0.0 0.00 0.10 0.00 96 1013.0
20170816041742 66 219 0.0 0.0 0.00 0.10 0.00 96 1013.0
20170816040254 66 219 0.0 0.0 0.00 0.10 0.00 95 1012.9
20170816034737 66 219 0.0 0.0 0.00 0.10 0.10 95 1012.9
20170816033247 67 219 0.0 0.0 0.00 0.10 0.10 95 1012.8
20170816031736 67 235 0.0 1.0 0.00 0.10 0.10 95 1012.7
20170816030245 67 228 0.0 1.0 0.00 0.10 0.10 95 1012.8
20170816024754 66 226 0.0 0.0 0.00 0.10 0.10 95 1012.6
20170816023243 67 226 0.0 0.0 0.00 0.10 0.10 95 1012.4
20170816021747 67 226 0.0 1.0 0.00 0.10 0.10 94 1012.2
20170816020238 67 231 0.0 1.0 0.00 0.10 0.10 95 1012.1
20170816014741 67 231 0.0 0.0 0.00 0.10 0.10 94 1012.0